Wind_Speed
6 6 7 7 7 6 4 3 2 2 3 4 5 5 5 7 8 9 10 10 11 11 10 11 11 11 12 12 13 13 14 15 15 15 16 16 16 16 16 16 16 16 15 14 14 13 12 11 10
7 7 7 6 6 6 5 4 4 4 4 5 6 6 7 8 9 10 10 11 12 13 13 14 14 14 14 15 16 17 17 18 17 17 17 17 17 17 17 17 17 17 16 16 15 14 13 12 10
8 7 7 7 7 7 6 6 6 5 5 6 7 7 8 9 10 11 12 13 13 14 15 15 15 16 17 18 18 19 20 21 21 21 20 20 20 19 19 19 19 18 18 17 15 15 14 13 11
8 8 7 7 7 7 7 6 6 6 6 7 8 9 9 10 11 12 13 14 14 15 16 16 17 18 19 19 20 21 22 23 23 23 22 22 23 22 22 21 20 20 19 18 17 16 15 14 13
10 9 8 7 7 7 7 7 8 8 8 9 9 10 11 12 13 13 14 15 16 16 16 17 18 19 20 21 21 23 24 25 25 25 25 24 25 25 25 23 22 22 21 20 19 17 16 15 14
11 9 8 8 9 8 7 8 8 9 10 10 10 12 13 13 14 14 15 15 16 16 17 17 18 19 20 21 23 24 25 26 27 28 28 27 27 27 27 26 24 23 22 21 21 20 19 17 16
12 10 10 9 10 10 9 9 8 9 9 10 12 13 14 14 14 15 15 15 15 16 17 18 18 18 19 20 22 23 25 26 28 29 29 29 29 29 29 27 27 26 24 24 23 22 21 19 18
13 12 11 11 10 10 10 9 9 9 9 11 12 13 13 14 14 14 14 15 15 16 17 17 17 18 19 19 20 21 23 24 26 27 28 29 30 30 30 28 27 28 26 25 25 24 22 21 21
15 13 12 12 11 11 11 10 10 10 11 12 12 12 12 13 13 14 14 14 15 15 16 16 16 16 16 17 18 19 20 22 23 24 26 28 29 29 30 30 29 29 29 28 26 26 25 24 23
16 14 13 12 12 12 11 11 11 11 12 12 11 11 12 12 13 13 13 13 14 14 14 14 14 14 15 15 16 18 19 20 21 22 23 24 26 28 28 28 29 30 29 29 28 28 27 26 24
16 15 14 12 12 12 12 12 12 12 12 11 11 11 11 12 12 12 12 12 12 12 12 13 13 13 14 14 15 16 17 18 19 20 21 22 24 26 27 27 28 29 29 30 29 28 27 26 26
17 15 14 13 11 11 12 12 12 12 11 10 10 10 11 11 10 10 11 11 11 11 11 11 12 13 13 14 15 15 16 17 17 19 20 21 22 23 25 26 27 28 28 29 30 30 28 27 26
17 15 14 12 11 12 12 12 12 11 10 10 10 10 10 9 9 9 9 10 10 10 11 11 12 13 14 14 15 15 16 16 17 18 19 20 21 22 23 24 25 26 27 28 29 30 30 28 26
16 15 13 12 12 12 12 11 12 11 10 9 9 9 8 8 8 8 8 9 9 10 11 12 12 13 14 14 15 15 16 16 16 17 17 19 20 21 22 23 24 25 26 27 28 30 30 30 28
16 15 14 13 13 12 12 12 11 10 8 8 8 8 8 7 7 7 7 7 8 9 11 12 13 13 14 15 15 16 16 16 16 16 17 17 18 19 20 21 22 23 24 25 26 28 30 31 30
16 15 14 12 12 11 11 11 10 9 8 8 8 7 7 6 6 6 6 7 8 9 10 12 13 14 14 15 16 16 16 16 16 16 16 16 16 17 18 19 20 21 22 24 25 26 28 30 31
17 15 14 13 12 11 10 10 9 8 8 8 7 6 5 5 5 5 5 6 8 9 10 12 13 14 15 16 17 17 17 17 17 16 16 16 15 15 15 16 17 18 20 21 24 25 27 29 29
16 15 14 13 12 11 10 10 9 8 8 7 6 5 4 4 4 4 5 6 7 9 10 11 13 14 16 17 18 18 18 17 17 17 17 15 14 13 13 13 14 15 17 19 21 23 25 27 28
17 15 13 13 11 10 10 10 10 8 7 6 5 4 4 4 4 4 5 6 7 8 10 11 13 14 16 18 19 19 18 18 17 17 16 15 14 12 12 12 12 13 15 16 18 20 22 25 27
16 14 13 13 11 10 9 9 9 8 7 6 5 5 4 3 3 4 5 6 7 8 10 11 13 15 16 18 19 19 19 19 18 18 17 16 13 12 11 11 11 12 13 14 16 18 20 22 25
15 14 13 12 10 9 8 8 9 7 7 6 6 4 4 3 4 4 5 6 7 8 10 12 13 15 17 18 19 19 19 19 18 18 17 16 14 12 11 10 10 10 11 12 14 15 17 20 23
14 14 12 10 9 8 8 7 8 7 7 6 5 4 4 4 4 4 5 5 7 8 10 12 14 15 16 18 19 19 20 20 19 19 18 17 15 13 11 9 9 9 9 10 12 14 16 18 21
13 12 11 9 8 8 8 7 8 7 7 6 5 5 4 4 3 4 5 6 7 8 10 12 13 15 16 17 18 19 20 20 20 19 18 17 16 14 12 10 8 8 8 9 10 12 14 16 18
12 10 9 9 9 8 8 7 7 7 7 6 6 5 5 4 4 4 5 6 7 9 10 12 13 15 16 17 18 19 19 20 20 19 19 18 16 15 12 10 9 8 7 7 8 9 11 13 16
10 9 9 9 9 9 8 8 7 8 7 6 6 6 5 5 4 5 5 6 7 9 10 12 13 14 16 17 18 18 19 19 20 20 19 18 17 15 13 11 9 8 7 6 6 8 9 11 13
9 9 9 9 10 10 8 8 8 8 8 7 7 6 6 5 5 5 6 6 7 9 10 11 13 14 16 17 17 18 18 19 19 20 19 19 17 16 15 12 10 8 7 6 6 6 8 10 12
10 9 9 9 9 8 8 8 9 9 9 8 8 7 7 6 6 6 6 6 7 8 10 11 13 14 15 16 17 17 18 18 19 19 19 19 18 16 15 13 11 9 7 6 5 5 6 8 10
9 9 9 9 9 8 7 8 10 10 9 9 9 8 8 7 7 7 6 6 7 8 10 11 12 13 14 15 16 17 18 18 18 18 18 18 18 16 15 14 12 10 8 7 6 4 4 6 8
9 9 9 9 9 8 8 8 10 10 10 10 9 9 9 8 8 7 7 7 7 8 10 11 12 13 14 15 16 16 17 17 18 18 18 18 17 16 16 15 13 11 9 8 7 4 3 4 5
9 9 9 10 10 9 9 8 10 11 10 10 10 10 10 9 9 8 7 7 8 9 10 11 12 12 13 14 15 16 16 17 17 17 17 17 17 16 15 15 13 12 10 9 7 6 3 3 4
Wind_Direction
313 328 336 338 334 337 325 317 285 273 290 289 287 293 297 298 297 295 298 300 300 298 293 288 284 281 276 271 267 265 262 258 254 252 252 252 250 249 248 248 250 249 249 249 249 249 250 251 252
303 313 328 337 341 343 329 308 290 290 290 295 292 295 299 300 299 299 299 298 298 296 294 290 285 283 279 275 270 268 268 263 259 257 256 255 255 254 253 253 251 250 248 246 246 246 246 246 247
293 304 318 324 329 329 320 311 291 291 289 293 297 301 303 302 301 300 300 299 298 295 293 288 284 283 279 277 273 269 269 267 264 261 259 259 258 258 256 255 253 251 248 244 243 244 243 243 245
284 293 302 312 316 317 313 313 305 296 292 297 303 305 306 305 303 302 303 304 301 298 295 290 286 283 280 278 276 273 270 268 268 264 261 262 260 259 258 257 255 252 250 247 244 244 240 239 240
277 283 290 299 304 307 307 306 304 297 300 299 305 308 307 307 306 305 305 305 303 300 297 294 291 287 282 278 275 273 271 269 269 268 266 264 263 262 260 258 257 255 252 252 250 245 243 244 242
272 276 282 287 296 301 301 303 300 302 308 305 306 307 308 308 308 306 306 306 303 301 298 295 293 289 285 281 277 275 272 269 268 268 267 266 265 263 262 259 256 257 255 254 252 247 243 243 241
266 269 273 281 291 294 297 297 298 300 302 304 306 308 309 310 310 310 309 308 307 304 301 299 295 292 289 285 282 278 275 272 270 269 267 265 265 263 261 259 258 257 257 254 252 249 243 241 241
260 264 271 278 284 288 294 295 297 301 302 304 306 307 308 312 313 313 313 312 311 310 307 305 301 297 293 290 286 283 280 275 272 270 268 265 264 263 261 258 258 256 255 254 253 251 245 241 239
255 259 266 276 281 284 290 294 298 297 301 304 305 306 309 312 314 314 315 315 315 314 313 311 308 304 299 296 292 289 285 280 277 274 270 266 264 262 261 258 257 255 255 254 252 250 248 244 238
251 255 260 270 276 285 291 293 296 298 299 301 302 307 310 314 316 318 318 318 319 320 319 318 316 312 307 303 299 295 292 287 282 278 274 269 265 263 261 258 256 254 252 251 250 250 249 247 240
247 250 256 264 275 285 290 293 294 296 298 297 301 305 308 313 316 320 323 325 326 328 328 327 325 321 315 311 309 305 300 294 288 282 277 274 269 266 263 258 255 253 252 249 248 248 247 246 243
242 247 253 262 272 282 287 289 292 295 295 295 301 305 309 314 317 324 330 332 335 337 336 336 335 331 327 322 317 313 309 304 297 289 282 277 273 268 264 260 256 253 251 248 245 245 244 245 243
237 242 250 259 269 280 284 284 288 291 292 294 299 303 310 317 320 327 334 339 343 344 344 344 343 340 334 328 323 320 316 311 304 296 289 283 277 271 266 262 258 255 252 249 247 244 241 241 241
234 238 246 255 266 275 280 282 285 286 286 290 297 303 312 316 319 329 337 343 347 349 350 350 347 343 339 335 331 327 324 319 313 304 297 290 282 275 269 264 259 255 251 249 246 244 242 241 240
228 235 243 253 263 272 274 278 284 287 284 288 297 305 313 316 319 328 338 343 346 350 352 352 350 348 345 342 339 336 332 327 322 315 307 299 290 280 272 266 262 256 252 248 245 243 242 240 238
224 232 241 249 259 269 267 273 277 278 278 286 296 304 312 316 320 330 338 341 347 351 353 352 352 351 349 347 344 341 337 332 328 322 316 309 300 287 277 269 264 260 256 250 245 243 242 240 238
220 228 238 248 255 263 267 273 274 268 273 283 290 301 311 315 320 330 339 344 347 350 352 351 352 353 354 353 349 345 342 338 335 330 324 317 310 298 286 275 268 262 257 252 247 243 242 241 238
216 224 235 245 252 259 265 268 273 266 272 279 286 296 306 314 319 327 337 345 347 348 350 351 353 356 357 356 355 352 349 345 340 335 329 323 315 304 293 283 274 266 259 254 249 244 242 240 239
215 224 234 242 252 258 260 266 271 267 266 272 277 285 293 307 316 322 331 341 345 349 351 353 355 357 358 358 357 356 354 352 349 344 339 333 324 311 298 290 280 270 262 257 251 246 242 239 236
215 223 233 244 250 255 261 266 267 264 263 266 270 276 286 297 306 312 324 335 342 349 353 355 356 357 358 358 358 358 356 355 355 353 350 344 335 323 309 297 287 276 265 258 252 247 244 240 236
213 222 233 243 246 255 264 265 263 262 262 264 266 266 276 281 291 302 317 330 339 347 352 355 356 357 357 358 359 358 358 358 357 356 354 350 344 334 322 309 296 284 270 260 253 250 246 240 235
212 223 234 243 248 260 264 263 263 264 262 259 260 261 265 267 277 295 314 328 338 345 351 355 356 356 356 357 359 359 360 360 359 357 356 355 351 345 336 322 308 293 279 269 259 250 246 239 233
212 222 236 245 256 265 267 266 260 260 257 254 254 257 258 259 265 292 311 323 333 342 349 352 355 356 357 358 359 360 1 1 0 359 357 356 354 349 342 335 321 306 291 278 264 252 246 238 232
216 229 242 249 259 267 267 265 256 254 251 251 249 253 256 256 264 288 305 316 330 341 347 350 352 354 356 358 358 360 1 2 2 1 0 359 357 354 349 342 334 320 305 288 270 255 245 237 232
219 233 247 255 262 269 266 265 257 252 249 249 248 253 252 254 265 284 296 308 326 339 345 348 351 352 354 357 358 359 1 2 3 3 2 1 1 360 356 348 342 335 322 302 281 260 245 236 233
223 234 243 253 263 268 267 263 253 250 250 249 249 251 250 252 264 279 288 303 323 335 342 346 349 350 353 356 358 359 0 1 3 4 5 4 3 3 0 355 351 342 334 318 299 272 250 239 234
229 241 248 257 261 263 261 256 253 252 252 249 246 246 247 252 265 275 284 301 320 332 340 344 346 349 351 354 357 359 360 1 2 3 4 5 5 4 4 4 2 356 351 340 320 291 260 241 234
235 244 252 261 267 265 257 257 256 257 257 249 243 243 246 253 263 272 281 297 316 329 337 341 344 346 349 353 356 358 359 0 2 3 4 5 7 7 7 7 5 4 0 352 342 315 277 248 237
244 250 257 264 263 261 258 258 260 259 257 251 246 245 246 250 258 266 276 292 309 323 330 336 340 343 346 350 354 356 358 360 1 3 4 6 8 9 9 9 10 7 4 1 357 342 296 258 244
251 254 258 262 263 261 261 257 258 258 257 253 248 246 246 249 256 262 274 288 302 315 324 331 336 340 343 347 350 353 356 358 360 2 3 5 7 9 9 10 10 9 7 4 2 355 334 280 257
Height
5892 5891 5891 5891 5891 5890 5889 5888 5888 5887 5887 5886 5886 5885 5885 5884 5884 5885 5882 5879 5878 5877 5876 5875 5874 5874 5873 5873 5872 5871 5871 5871 5871 5871 5871 5871 5871 5871 5871 5871 5872 5872 5872 5873 5873 5874 5874 5874 5874
5892 5891 5891 5891 5890 5889 5889 5887 5887 5886 5886 5885 5884 5883 5883 5882 5881 5880 5878 5877 5875 5874 5873 5872 5871 5871 5870 5870 5869 5869 5868 5868 5868 5868 5867 5867 5867 5868 5868 5868 5868 5868 5869 5869 5870 5871 5871 5872 5872
5891 5890 5891 5890 5889 5888 5888 5886 5885 5884 5884 5883 5882 5882 5881 5880 5879 5877 5876 5874 5873 5872 5871 5869 5869 5868 5867 5866 5866 5865 5865 5864 5864 5864 5864 5864 5863 5863 5864 5864 5864 5865 5865 5866 5867 5868 5868 5869 5870
5890 5890 5890 5890 5888 5887 5886 5885 5884 5883 5882 5882 5881 5880 5879 5878 5877 5875 5873 5872 5871 5869 5867 5866 5865 5864 5863 5862 5862 5861 5860 5860 5859 5859 5859 5859 5859 5859 5860 5860 5861 5861 5862 5863 5863 5864 5865 5866 5867
5888 5888 5888 5887 5886 5886 5884 5883 5882 5882 5881 5880 5879 5878 5877 5876 5874 5872 5871 5869 5868 5866 5864 5863 5861 5860 5859 5858 5857 5856 5856 5855 5855 5854 5854 5854 5854 5855 5855 5855 5856 5856 5857 5859 5859 5860 5862 5863 5864
5886 5886 5886 5885 5885 5884 5883 5882 5881 5880 5879 5878 5877 5876 5874 5873 5871 5870 5868 5866 5864 5863 5861 5859 5858 5856 5855 5854 5852 5852 5851 5850 5849 5849 5849 5849 5849 5849 5850 5850 5851 5852 5853 5854 5855 5856 5857 5859 5860
5884 5884 5884 5883 5882 5882 5881 5880 5879 5878 5877 5876 5875 5874 5872 5870 5869 5867 5865 5863 5861 5859 5858 5856 5854 5852 5851 5849 5848 5846 5845 5844 5844 5843 5843 5843 5843 5843 5844 5845 5846 5847 5848 5849 5850 5851 5852 5855 5856
5880 5882 5881 5881 5881 5880 5879 5878 5877 5876 5875 5874 5873 5872 5870 5869 5866 5865 5863 5861 5858 5856 5854 5852 5850 5848 5846 5845 5843 5842 5840 5839 5838 5837 5837 5837 5837 5837 5838 5839 5840 5841 5842 5844 5845 5846 5848 5850 5852
5877 5880 5879 5879 5878 5878 5877 5876 5875 5874 5873 5871 5870 5869 5868 5866 5864 5863 5860 5858 5856 5854 5851 5849 5847 5845 5843 5841 5839 5837 5835 5834 5833 5832 5831 5831 5830 5831 5831 5833 5834 5835 5837 5838 5840 5841 5843 5845 5847
5874 5876 5876 5876 5876 5875 5874 5874 5873 5871 5870 5869 5868 5867 5866 5864 5862 5860 5858 5856 5854 5851 5849 5846 5844 5842 5839 5837 5835 5833 5831 5829 5828 5827 5826 5825 5824 5824 5825 5826 5827 5828 5830 5832 5834 5835 5837 5839 5841
5871 5872 5873 5873 5873 5873 5872 5871 5870 5869 5868 5867 5866 5865 5863 5862 5860 5858 5856 5854 5851 5849 5847 5844 5842 5839 5837 5834 5832 5829 5827 5825 5823 5822 5820 5819 5819 5818 5819 5820 5821 5822 5823 5825 5827 5829 5831 5833 5835
5867 5869 5870 5870 5871 5870 5869 5868 5868 5867 5866 5865 5864 5863 5862 5860 5858 5856 5855 5852 5850 5847 5845 5842 5840 5837 5834 5832 5829 5826 5824 5821 5819 5817 5816 5814 5813 5813 5813 5813 5814 5815 5816 5818 5821 5823 5825 5828 5830
5864 5865 5867 5868 5868 5868 5867 5866 5865 5864 5864 5863 5862 5861 5860 5858 5857 5855 5853 5851 5849 5846 5844 5841 5838 5835 5832 5829 5827 5824 5821 5818 5815 5813 5811 5809 5808 5807 5807 5807 5808 5809 5810 5812 5814 5817 5819 5822 5824
5860 5862 5864 5865 5865 5865 5865 5864 5864 5862 5862 5861 5860 5859 5858 5857 5855 5854 5852 5850 5848 5845 5843 5840 5837 5834 5831 5828 5824 5821 5818 5814 5812 5809 5807 5804 5803 5802 5801 5801 5801 5802 5804 5806 5808 5810 5813 5816 5819
5857 5860 5861 5862 5862 5863 5863 5862 5861 5860 5860 5859 5858 5857 5856 5855 5854 5852 5851 5849 5847 5844 5842 5839 5836 5832 5829 5826 5822 5819 5815 5812 5808 5805 5802 5800 5798 5796 5796 5795 5796 5796 5797 5799 5801 5804 5807 5810 5813
5855 5857 5859 5860 5860 5860 5862 5861 5859 5859 5858 5858 5856 5856 5855 5854 5853 5851 5849 5848 5846 5843 5841 5838 5835 5831 5828 5824 5821 5817 5813 5809 5805 5802 5799 5796 5793 5791 5790 5790 5790 5791 5792 5793 5795 5798 5800 5803 5806
5852 5855 5856 5857 5857 5858 5858 5858 5857 5857 5856 5856 5855 5854 5853 5852 5851 5850 5848 5847 5845 5843 5840 5837 5834 5831 5827 5823 5819 5815 5811 5806 5802 5799 5795 5792 5789 5787 5786 5785 5785 5785 5786 5788 5789 5792 5794 5797 5800
5850 5852 5853 5854 5855 5856 5856 5856 5855 5855 5855 5854 5853 5853 5852 5851 5850 5849 5848 5846 5844 5842 5839 5836 5833 5830 5826 5822 5817 5813 5809 5804 5800 5796 5792 5789 5786 5784 5782 5781 5781 5781 5781 5782 5784 5786 5788 5791 5794
5847 5849 5850 5852 5852 5853 5853 5853 5853 5853 5853 5853 5852 5851 5851 5850 5849 5848 5847 5845 5844 5841 5838 5835 5832 5829 5825 5820 5816 5812 5807 5803 5798 5794 5790 5786 5783 5781 5779 5778 5777 5777 5777 5777 5779 5780 5782 5785 5787
5844 5847 5848 5849 5850 5851 5851 5851 5851 5851 5851 5851 5851 5850 5850 5849 5848 5847 5846 5845 5843 5840 5838 5835 5831 5828 5824 5819 5815 5810 5806 5801 5797 5793 5788 5784 5781 5778 5776 5775 5774 5773 5773 5773 5774 5775 5777 5779 5781
5843 5845 5846 5847 5848 5849 5849 5850 5849 5849 5849 5849 5849 5849 5848 5848 5847 5846 5845 5844 5842 5840 5837 5834 5830 5827 5823 5819 5814 5810 5805 5800 5796 5791 5787 5783 5779 5776 5774 5772 5771 5770 5769 5769 5770 5770 5772 5773 5776
5841 5842 5844 5845 5846 5847 5848 5848 5848 5847 5847 5847 5848 5847 5847 5847 5846 5845 5844 5843 5841 5839 5836 5833 5829 5826 5822 5818 5814 5809 5804 5799 5795 5790 5786 5782 5778 5774 5772 5770 5768 5767 5766 5765 5766 5766 5767 5768 5771
5839 5841 5842 5843 5844 5845 5845 5846 5847 5845 5846 5846 5846 5846 5846 5845 5845 5844 5843 5842 5840 5838 5835 5832 5828 5825 5821 5817 5813 5808 5804 5799 5794 5789 5785 5781 5777 5773 5770 5768 5766 5764 5763 5762 5762 5762 5763 5764 5766
5838 5840 5841 5842 5843 5844 5844 5844 5845 5844 5844 5844 5844 5844 5844 5844 5843 5843 5842 5841 5839 5836 5834 5831 5828 5824 5820 5816 5812 5808 5803 5798 5794 5789 5784 5780 5776 5772 5769 5766 5764 5762 5760 5759 5759 5759 5759 5761 5762
5837 5839 5841 5841 5842 5842 5842 5842 5843 5842 5842 5842 5843 5842 5842 5842 5842 5841 5841 5839 5838 5835 5833 5830 5827 5823 5820 5816 5811 5807 5803 5798 5793 5789 5784 5779 5775 5771 5768 5765 5762 5760 5759 5757 5757 5756 5757 5758 5760
5835 5838 5840 5840 5840 5840 5840 5840 5841 5840 5840 5840 5841 5841 5841 5841 5840 5840 5839 5838 5836 5834 5831 5829 5826 5822 5819 5815 5811 5806 5802 5798 5793 5788 5784 5779 5775 5771 5767 5764 5761 5759 5757 5756 5755 5754 5755 5755 5757
5834 5835 5837 5838 5838 5838 5838 5838 5838 5838 5838 5838 5839 5839 5839 5839 5838 5838 5837 5836 5834 5832 5830 5828 5825 5821 5818 5814 5810 5806 5802 5797 5793 5788 5784 5779 5775 5771 5767 5764 5761 5758 5757 5755 5754 5753 5753 5753 5754
5833 5833 5835 5835 5835 5836 5837 5837 5837 5836 5836 5836 5836 5837 5837 5837 5837 5836 5835 5834 5833 5831 5829 5826 5824 5820 5817 5813 5809 5805 5801 5797 5793 5788 5784 5780 5775 5771 5767 5764 5761 5758 5756 5754 5753 5752 5751 5752 5752
5832 5832 5832 5833 5833 5834 5834 5837 5834 5834 5834 5834 5834 5834 5834 5835 5835 5834 5833 5832 5831 5829 5827 5825 5822 5819 5816 5812 5809 5805 5801 5797 5793 5788 5784 5780 5776 5772 5768 5764 5761 5758 5756 5754 5752 5751 5750 5750 5751
5829 5830 5830 5831 5831 5831 5832 5835 5831 5831 5831 5831 5832 5832 5832 5832 5832 5832 5831 5830 5829 5827 5825 5823 5821 5818 5815 5811 5808 5804 5800 5796 5792 5788 5784 5780 5776 5772 5768 5765 5762 5759 5756 5754 5752 5750 5749 5749 5749